Weather History for Gillette, WY

Change the Weather History Date:

Wednesday, March 27, 2013

  Actual Average Record
Temperature  
Mean Temperature 41 °F 37 °F  
Max Temperature 57 °F 50 °F 76 °F (1986)
Min Temperature 24 °F 25 °F -10 °F (1931)
Degree Days  
Heating Degree Days 24 28  
Month to date heating degree days 874 830  
Since 1 July heating degree days 5997 6238  
Cooling Degree Days 0 0  
Month to date cooling degree days 0 0  
Year to date cooling degree days 0 0  
Moisture  
Dew Point 19 °F    
Average Humidity 50    
Maximum Humidity 75    
Minimum Humidity 24    
Precipitation  
Precipitation 0.00 in 0.04 in 0.23 in (1958)
Month to date precipitation 0.28 0.81  
Year to date precipitation 1.41 1.59  
Sea Level Pressure  
Sea Level Pressure 30.03 in    
Wind  
Wind Speed 5 mph (South)    
Max Wind Speed 15 mph    
Max Gust Speed 18 mph    
Visibility 10 miles    
Events      
T = Trace of Precipitation, MM = Missing Value Source: NWS Daily Summary

Daily Weather History Graph

Daily Weather History Graph

Search for Another Location

Airport:

Trip Planner

Search our weather history database for the weather conditions in past years. The results will help you decide how hot, cold, wet, or windy it might be!

Date:

Astronomy

Mar. 27, 2013 Rise Set
Actual Time 6:51 AM MDT 7:23 PM MDT
Civil Twilight 6:22 AM MDT 7:52 PM MDT
Nautical Twilight 5:48 AM MDT 8:27 PM MDT
Astronomical Twilight 5:12 AM MDT 9:03 PM MDT
Moon 8:13 PM MDT (3/27) 6:42 AM MDT (3/27)
Length of Visible Light 13h 30m
Length of Day
12h 31m
Full, 100% of the Moon is Illuminated
Mar 27
Full
Apr 2
Last Quarter
Apr 10
New
Apr 18
First Quarter
Apr 25
Full

Hourly Weather History & Observations

Time (MDT) Temp. Windchill Dew Point Humidity Pressure Visibility Wind Dir Wind Speed Gust Speed Precip Events Conditions
12:53 AM 25.0 °F 14.8 °F 16.0 °F 69% 30.04 in 10.0 mi South 10.4 mph - N/A   Clear
1:53 AM 28.9 °F 19.8 °F 15.1 °F 56% 30.02 in 10.0 mi South 10.4 mph - N/A   Clear
2:53 AM 30.9 °F 20.7 °F 15.1 °F 52% 30.01 in 10.0 mi South 13.8 mph - N/A   Clear
3:53 AM 28.9 °F 19.8 °F 14.0 °F 54% 30.01 in 10.0 mi South 10.4 mph - N/A   Clear
4:53 AM 30.0 °F 20.5 °F 12.9 °F 49% 30.02 in 10.0 mi South 11.5 mph - N/A   Clear
5:53 AM 26.1 °F - 12.9 °F 58% 30.04 in 10.0 mi Calm Calm - N/A   Clear
6:53 AM 25.0 °F - 12.9 °F 60% 30.06 in 10.0 mi Calm Calm - N/A   Clear
7:53 AM 30.9 °F 25.2 °F 15.1 °F 52% 30.11 in 10.0 mi SSE 5.8 mph - N/A   Clear
8:53 AM 39.0 °F 31.4 °F 21.9 °F 50% 30.09 in 10.0 mi South 12.7 mph - N/A   Clear
9:53 AM 46.0 °F 41.0 °F 21.0 °F 37% 30.06 in 10.0 mi South 10.4 mph - N/A   Clear
10:53 AM 48.0 °F - 17.1 °F 29% 30.07 in 10.0 mi SSW 9.2 mph - N/A   Clear
11:53 AM 51.1 °F - 17.1 °F 26% 30.04 in 10.0 mi South 8.1 mph - N/A   Clear
12:53 PM 52.0 °F - 17.1 °F 25% 30.04 in 10.0 mi WSW 3.5 mph - N/A   Clear
1:53 PM 54.0 °F - 18.0 °F 24% 30.00 in 10.0 mi Variable 5.8 mph - N/A   Clear
2:53 PM 54.0 °F - 19.0 °F 25% 29.99 in 10.0 mi Variable 3.5 mph - N/A   Clear
3:53 PM 55.0 °F - 21.0 °F 27% 29.99 in 10.0 mi South 6.9 mph - N/A   Partly Cloudy
4:53 PM 57.0 °F - 21.9 °F 26% 29.96 in 10.0 mi SSE 6.9 mph - N/A   Scattered Clouds
5:53 PM 55.9 °F - 21.9 °F 27% 29.99 in 10.0 mi ESE 4.6 mph - N/A   Mostly Cloudy
6:53 PM 46.9 °F - 28.9 °F 50% 30.01 in 10.0 mi SSW 3.5 mph - N/A   Clear
7:53 PM 44.1 °F - 28.0 °F 53% 30.01 in 10.0 mi Calm Calm - N/A   Overcast
8:53 PM 37.0 °F - 26.1 °F 65% 30.03 in 10.0 mi Calm Calm - N/A   Scattered Clouds
9:53 PM 39.9 °F - 24.1 °F 53% 30.01 in 10.0 mi Calm Calm - N/A   Clear
10:53 PM 35.1 °F - 23.0 °F 61% 30.01 in 10.0 mi Calm Calm - N/A   Clear
11:53 PM 28.9 °F - 21.9 °F 75% 30.03 in 10.0 mi Calm Calm - N/A   Clear